Time,TemperatureF,DewpointF,PressureIn,WindDirection,WindDirectionDegrees,WindSpeedMPH,WindSpeedGustMPH,Humidity,HourlyPrecipIn,Conditions,Clouds,dailyrainin,SoftwareType,DateUTC
2013-02-15 00:22:00,33.0,-99.9,-100.00,WSW,252,4.0,-999.0,-999,-99.99,,,-99.99,,2013-02-15 05:22:00,
2013-02-15 00:33:00,33.0,-99.9,-100.00,WSW,252,4.0,-999.0,-999,-99.99,,,-99.99,,2013-02-15 05:33:00,
2013-02-15 00:42:00,33.0,-99.9,-100.00,WSW,252,4.0,-999.0,-999,-99.99,,,-99.99,,2013-02-15 05:42:00,
2013-02-15 00:52:00,33.0,-99.9,-100.00,WSW,243,2.0,-999.0,-999,-99.99,,,-99.99,,2013-02-15 05:52:00,
2013-02-15 01:02:00,33.0,-99.9,-100.00,WSW,243,2.0,-999.0,-999,-99.99,,,-99.99,,2013-02-15 06:02:00,
2013-02-15 01:11:00,32.0,-99.9,-100.00,WSW,242,0.0,-999.0,-999,-99.99,,,-99.99,,2013-02-15 06:11:00,
2013-02-15 01:22:00,32.0,-99.9,-100.00,WSW,242,0.0,-999.0,-999,-99.99,,,-99.99,,2013-02-15 06:22:00,
2013-02-15 01:32:00,32.0,-99.9,-100.00,WSW,242,0.0,-999.0,-999,-99.99,,,-99.99,,2013-02-15 06:32:00,
2013-02-15 01:42:00,32.0,-99.9,-100.00,WSW,242,0.0,-999.0,-999,-99.99,,,-99.99,,2013-02-15 06:42:00,
2013-02-15 01:52:00,32.0,-99.9,-100.00,WSW,242,0.0,-999.0,-999,-99.99,,,-99.99,,2013-02-15 06:52:00,
2013-02-15 02:01:00,31.0,-99.9,-100.00,WSW,242,1.0,-999.0,-999,-99.99,,,-99.99,,2013-02-15 07:01:00,
2013-02-15 02:11:00,31.0,-99.9,-100.00,WSW,242,1.0,-999.0,-999,-99.99,,,-99.99,,2013-02-15 07:11:00,
2013-02-15 02:22:00,31.0,-99.9,-100.00,WSW,242,1.0,-999.0,-999,-99.99,,,-99.99,,2013-02-15 07:22:00,
2013-02-15 02:32:00,31.0,-99.9,-100.00,WSW,242,1.0,-999.0,-999,-99.99,,,-99.99,,2013-02-15 07:32:00,
2013-02-15 02:42:00,31.0,-99.9,-100.00,WSW,242,1.0,-999.0,-999,-99.99,,,-99.99,,2013-02-15 07:42:00,
2013-02-15 02:52:00,30.0,-99.9,-100.00,WSW,242,3.0,-999.0,-999,-99.99,,,-99.99,,2013-02-15 07:52:00,
2013-02-15 03:02:00,30.0,-99.9,-100.00,WSW,242,1.0,-999.0,-999,-99.99,,,-99.99,,2013-02-15 08:02:00,
2013-02-15 03:11:00,30.0,-99.9,-100.00,WSW,242,1.0,-999.0,-999,-99.99,,,-99.99,,2013-02-15 08:11:00,
2013-02-15 03:22:00,30.0,-99.9,-100.00,WSW,242,1.0,-999.0,-999,-99.99,,,-99.99,,2013-02-15 08:22:00,
2013-02-15 03:32:00,30.0,-99.9,-100.00,WSW,242,3.0,-999.0,-999,-99.99,,,-99.99,,2013-02-15 08:32:00,
2013-02-15 03:42:00,30.0,-99.9,-100.00,WSW,242,3.0,-999.0,-999,-99.99,,,-99.99,,2013-02-15 08:42:00,
2013-02-15 03:53:00,30.0,-99.9,-100.00,WSW,242,3.0,-999.0,-999,-99.99,,,-99.99,,2013-02-15 08:53:00,
2013-02-15 04:02:00,30.0,-99.9,-100.00,WSW,242,3.0,-999.0,-999,-99.99,,,-99.99,,2013-02-15 09:02:00,
2013-02-15 04:12:00,30.0,-99.9,-100.00,WSW,242,3.0,-999.0,-999,-99.99,,,-99.99,,2013-02-15 09:12:00,
2013-02-15 04:22:00,30.0,-99.9,-100.00,WSW,242,2.0,-999.0,-999,-99.99,,,-99.99,,2013-02-15 09:22:00,
2013-02-15 04:32:00,30.0,-99.9,-100.00,WSW,242,0.0,-999.0,-999,-99.99,,,-99.99,,2013-02-15 09:32:00,
2013-02-15 04:42:00,30.0,-99.9,-100.00,WSW,242,0.0,-999.0,-999,-99.99,,,-99.99,,2013-02-15 09:42:00,
2013-02-15 04:52:00,30.0,-99.9,-100.00,WSW,242,0.0,-999.0,-999,-99.99,,,-99.99,,2013-02-15 09:52:00,
2013-02-15 05:02:00,30.0,-99.9,-100.00,WSW,242,0.0,-999.0,-999,-99.99,,,-99.99,,2013-02-15 10:02:00,
2013-02-15 05:11:00,30.0,-99.9,-100.00,WSW,242,0.0,-999.0,-999,-99.99,,,-99.99,,2013-02-15 10:11:00,
2013-02-15 05:22:00,30.0,-99.9,-100.00,WSW,242,0.0,-999.0,-999,-99.99,,,-99.99,,2013-02-15 10:22:00,
2013-02-15 05:32:00,30.0,-99.9,-100.00,WSW,242,0.0,-999.0,-999,-99.99,,,-99.99,,2013-02-15 10:32:00,
2013-02-15 05:42:00,30.0,-99.9,-100.00,WSW,242,0.0,-999.0,-999,-99.99,,,-99.99,,2013-02-15 10:42:00,
2013-02-15 05:52:00,30.0,-99.9,-100.00,WSW,242,0.0,-999.0,-999,-99.99,,,-99.99,,2013-02-15 10:52:00,
2013-02-15 06:01:00,29.0,-99.9,-100.00,WSW,242,0.0,-999.0,-999,-99.99,,,-99.99,,2013-02-15 11:01:00,
2013-02-15 06:11:00,29.0,-99.9,-100.00,WSW,242,0.0,-999.0,-999,-99.99,,,-99.99,,2013-02-15 11:11:00,
2013-02-15 06:23:00,30.0,-99.9,-100.00,WSW,242,2.0,-999.0,-999,-99.99,,,-99.99,,2013-02-15 11:23:00,
2013-02-15 06:32:00,30.0,-99.9,-100.00,WSW,242,2.0,-999.0,-999,-99.99,,,-99.99,,2013-02-15 11:32:00,
2013-02-15 06:43:00,30.0,-99.9,-100.00,WSW,242,2.0,-999.0,-999,-99.99,,,-99.99,,2013-02-15 11:43:00,
2013-02-15 06:52:00,30.0,-99.9,-100.00,WSW,242,2.0,-999.0,-999,-99.99,,,-99.99,,2013-02-15 11:52:00,
2013-02-15 07:02:00,30.0,-99.9,-100.00,WSW,242,2.0,-999.0,-999,-99.99,,,-99.99,,2013-02-15 12:02:00,
2013-02-15 07:22:00,30.0,-99.9,-100.00,WSW,242,0.0,-999.0,-999,-99.99,,,-99.99,,2013-02-15 12:22:00,
2013-02-15 07:32:00,30.0,-99.9,-100.00,WSW,242,0.0,-999.0,-999,-99.99,,,-99.99,,2013-02-15 12:32:00,
2013-02-15 07:42:00,30.0,-99.9,-100.00,WSW,242,0.0,-999.0,-999,-99.99,,,-99.99,,2013-02-15 12:42:00,
2013-02-15 07:53:00,30.0,-99.9,-100.00,WSW,242,0.0,-999.0,-999,-99.99,,,-99.99,,2013-02-15 12:53:00,
2013-02-15 08:02:00,30.0,-99.9,-100.00,WSW,242,2.0,-999.0,-999,-99.99,,,-99.99,,2013-02-15 13:02:00,
2013-02-15 08:12:00,30.0,-99.9,-100.00,WSW,242,2.0,-999.0,-999,-99.99,,,-99.99,,2013-02-15 13:12:00,
2013-02-15 08:22:00,30.0,-99.9,-100.00,WSW,242,1.0,-999.0,-999,-99.99,,,-99.99,,2013-02-15 13:22:00,
2013-02-15 08:32:00,30.0,-99.9,-100.00,WSW,242,0.0,-999.0,-999,-99.99,,,-99.99,,2013-02-15 13:32:00,
2013-02-15 08:42:00,30.0,-99.9,-100.00,WSW,242,0.0,-999.0,-999,-99.99,,,-99.99,,2013-02-15 13:42:00,
2013-02-15 08:52:00,30.0,-99.9,-100.00,WSW,242,1.0,-999.0,-999,-99.99,,,-99.99,,2013-02-15 13:52:00,
2013-02-15 09:02:00,31.0,-99.9,-100.00,WSW,242,2.0,-999.0,-999,-99.99,,,-99.99,,2013-02-15 14:02:00,
2013-02-15 09:12:00,31.0,-99.9,-100.00,WSW,242,2.0,-999.0,-999,-99.99,,,-99.99,,2013-02-15 14:12:00,
2013-02-15 09:22:00,31.0,-99.9,-100.00,WSW,242,2.0,-999.0,-999,-99.99,,,-99.99,,2013-02-15 14:22:00,
2013-02-15 09:32:00,31.0,-99.9,-100.00,WSW,242,2.0,-999.0,-999,-99.99,,,-99.99,,2013-02-15 14:32:00,
2013-02-15 09:42:00,31.0,-99.9,-100.00,WSW,242,2.0,-999.0,-999,-99.99,,,-99.99,,2013-02-15 14:42:00,
2013-02-15 10:22:00,32.0,-99.9,-100.00,West,262,2.0,-999.0,-999,-99.99,,,-99.99,,2013-02-15 15:22:00,
2013-02-15 10:32:00,32.0,-99.9,-100.00,WNW,300,1.0,-999.0,-999,-99.99,,,-99.99,,2013-02-15 15:32:00,
2013-02-15 10:42:00,32.0,-99.9,-100.00,WNW,300,1.0,-999.0,-999,-99.99,,,-99.99,,2013-02-15 15:42:00,
2013-02-15 10:52:00,32.0,-99.9,-100.00,WNW,300,1.0,-999.0,-999,-99.99,,,-99.99,,2013-02-15 15:52:00,
2013-02-15 11:02:00,32.0,-99.9,-100.00,WNW,300,1.0,-999.0,-999,-99.99,,,-99.99,,2013-02-15 16:02:00,
2013-02-15 11:12:00,32.0,-99.9,-100.00,WNW,300,1.0,-999.0,-999,-99.99,,,-99.99,,2013-02-15 16:12:00,
2013-02-15 11:22:00,29.0,-99.9,-100.00,North,4,5.0,-999.0,-999,-99.99,,,-99.99,,2013-02-15 16:22:00,
2013-02-15 11:32:00,29.0,-99.9,-100.00,North,4,5.0,-999.0,-999,-99.99,,,-99.99,,2013-02-15 16:32:00,
2013-02-15 11:43:00,29.0,-99.9,-100.00,North,4,5.0,-999.0,-999,-99.99,,,-99.99,,2013-02-15 16:43:00,
2013-02-15 11:52:00,29.0,-99.9,-100.00,North,4,5.0,-999.0,-999,-99.99,,,-99.99,,2013-02-15 16:52:00,
2013-02-15 12:01:00,29.0,-99.9,-100.00,North,4,5.0,-999.0,-999,-99.99,,,-99.99,,2013-02-15 17:01:00,
2013-02-15 12:11:00,29.0,-99.9,-100.00,North,0,5.0,-999.0,-999,-99.99,,,-99.99,,2013-02-15 17:11:00,
2013-02-15 12:22:00,29.0,-99.9,-100.00,North,0,5.0,-999.0,-999,-99.99,,,-99.99,,2013-02-15 17:22:00,
2013-02-15 12:32:00,29.0,-99.9,-100.00,North,0,5.0,-999.0,-999,-99.99,,,-99.99,,2013-02-15 17:32:00,
2013-02-15 12:42:00,29.0,-99.9,-100.00,North,0,5.0,-999.0,-999,-99.99,,,-99.99,,2013-02-15 17:42:00,
2013-02-15 12:52:00,29.0,-99.9,-100.00,North,0,5.0,-999.0,-999,-99.99,,,-99.99,,2013-02-15 17:52:00,
2013-02-15 13:02:00,30.0,-99.9,-100.00,North,8,2.0,-999.0,-999,-99.99,,,-99.99,,2013-02-15 18:02:00,
2013-02-15 13:12:00,30.0,-99.9,-100.00,North,8,2.0,-999.0,-999,-99.99,,,-99.99,,2013-02-15 18:12:00,
2013-02-15 13:22:00,30.0,-99.9,-100.00,North,8,2.0,-999.0,-999,-99.99,,,-99.99,,2013-02-15 18:22:00,
2013-02-15 13:32:00,30.0,-99.9,-100.00,North,359,7.0,-999.0,-999,-99.99,,,-99.99,,2013-02-15 18:32:00,
2013-02-15 13:42:00,30.0,-99.9,-100.00,North,359,7.0,-999.0,-999,-99.99,,,-99.99,,2013-02-15 18:42:00,
2013-02-15 13:53:00,30.0,-99.9,-100.00,North,357,10.0,-999.0,-999,-99.99,,,-99.99,,2013-02-15 18:53:00,
2013-02-15 14:02:00,30.0,-99.9,-100.00,North,357,10.0,-999.0,-999,-99.99,,,-99.99,,2013-02-15 19:02:00,
2013-02-15 14:11:00,30.0,-99.9,-100.00,North,357,10.0,-999.0,-999,-99.99,,,-99.99,,2013-02-15 19:11:00,
2013-02-15 14:22:00,30.0,-99.9,-100.00,North,357,10.0,-999.0,-999,-99.99,,,-99.99,,2013-02-15 19:22:00,
2013-02-15 14:32:00,30.0,-99.9,-100.00,North,357,10.0,-999.0,-999,-99.99,,,-99.99,,2013-02-15 19:32:00,
2013-02-15 15:22:00,30.0,-99.9,-100.00,NNW,336,6.0,-999.0,-999,-99.99,,,-99.99,,2013-02-15 20:22:00,
2013-02-15 15:32:00,30.0,-99.9,-100.00,NW,304,7.0,-999.0,-999,-99.99,,,-99.99,,2013-02-15 20:32:00,
2013-02-15 15:43:00,30.0,-99.9,-100.00,NW,304,7.0,-999.0,-999,-99.99,,,-99.99,,2013-02-15 20:43:00,
2013-02-15 15:53:00,31.0,-99.9,-100.00,West,272,6.0,-999.0,-999,-99.99,,,-99.99,,2013-02-15 20:53:00,
2013-02-15 16:02:00,30.0,-99.9,-100.00,West,272,4.0,-999.0,-999,-99.99,,,-99.99,,2013-02-15 21:02:00,
2013-02-15 16:11:00,30.0,-99.9,-100.00,West,272,4.0,-999.0,-999,-99.99,,,-99.99,,2013-02-15 21:11:00,
2013-02-15 16:22:00,30.0,-99.9,-100.00,West,272,4.0,-999.0,-999,-99.99,,,-99.99,,2013-02-15 21:22:00,
2013-02-15 16:32:00,30.0,-99.9,-100.00,West,272,4.0,-999.0,-999,-99.99,,,-99.99,,2013-02-15 21:32:00,
2013-02-15 16:42:00,30.0,-99.9,-100.00,West,272,4.0,-999.0,-999,-99.99,,,-99.99,,2013-02-15 21:42:00,
2013-02-15 17:02:00,30.0,-99.9,-100.00,West,278,6.0,-999.0,-999,-99.99,,,-99.99,,2013-02-15 22:02:00,
2013-02-15 17:12:00,30.0,-99.9,-100.00,West,278,6.0,-999.0,-999,-99.99,,,-99.99,,2013-02-15 22:12:00,
2013-02-15 17:22:00,30.0,-99.9,-100.00,WNW,293,3.0,-999.0,-999,-99.99,,,-99.99,,2013-02-15 22:22:00,
2013-02-15 17:32:00,30.0,-99.9,-100.00,WNW,293,3.0,-999.0,-999,-99.99,,,-99.99,,2013-02-15 22:32:00,
2013-02-15 17:42:00,30.0,-99.9,-100.00,WNW,293,3.0,-999.0,-999,-99.99,,,-99.99,,2013-02-15 22:42:00,
2013-02-15 17:52:00,30.0,-99.9,-100.00,WNW,293,3.0,-999.0,-999,-99.99,,,-99.99,,2013-02-15 22:52:00,
2013-02-15 18:03:00,28.0,-99.9,-100.00,WNW,295,2.0,-999.0,-999,-99.99,,,-99.99,,2013-02-15 23:03:00,
2013-02-15 18:11:00,28.0,-99.9,-100.00,WNW,295,2.0,-999.0,-999,-99.99,,,-99.99,,2013-02-15 23:11:00,
2013-02-15 18:22:00,28.0,-99.9,-100.00,WNW,295,2.0,-999.0,-999,-99.99,,,-99.99,,2013-02-15 23:22:00,
2013-02-15 18:32:00,27.0,-99.9,-100.00,NNW,334,3.0,-999.0,-999,-99.99,,,-99.99,,2013-02-15 23:32:00,
2013-02-15 18:42:00,27.0,-99.9,-100.00,NNW,334,3.0,-999.0,-999,-99.99,,,-99.99,,2013-02-15 23:42:00,
2013-02-15 18:52:00,27.0,-99.9,-100.00,NNW,334,3.0,-999.0,-999,-99.99,,,-99.99,,2013-02-15 23:52:00,
2013-02-15 19:02:00,26.0,-99.9,-100.00,WNW,289,0.0,-999.0,-999,-99.99,,,-99.99,,2013-02-16 00:02:00,
2013-02-15 19:12:00,26.0,-99.9,-100.00,WNW,289,0.0,-999.0,-999,-99.99,,,-99.99,,2013-02-16 00:12:00,
2013-02-15 19:22:00,26.0,-99.9,-100.00,WNW,289,0.0,-999.0,-999,-99.99,,,-99.99,,2013-02-16 00:22:00,
2013-02-15 19:32:00,26.0,-99.9,-100.00,WNW,289,0.0,-999.0,-999,-99.99,,,-99.99,,2013-02-16 00:32:00,
2013-02-15 19:42:00,26.0,-99.9,-100.00,WNW,289,0.0,-999.0,-999,-99.99,,,-99.99,,2013-02-16 00:42:00,
2013-02-15 22:22:00,24.0,-99.9,-100.00,NW,305,0.0,-999.0,-999,-99.99,,,-99.99,,2013-02-16 03:22:00,
2013-02-15 22:32:00,24.0,-99.9,-100.00,NW,305,0.0,-999.0,-999,-99.99,,,-99.99,,2013-02-16 03:32:00,
2013-02-15 22:42:00,24.0,-99.9,-100.00,NW,305,0.0,-999.0,-999,-99.99,,,-99.99,,2013-02-16 03:42:00,
2013-02-15 22:52:00,24.0,-99.9,-100.00,NW,305,0.0,-999.0,-999,-99.99,,,-99.99,,2013-02-16 03:52:00,
2013-02-15 23:01:00,24.0,-99.9,-100.00,NW,305,0.0,-999.0,-999,-99.99,,,-99.99,,2013-02-16 04:01:00,
2013-02-15 23:11:00,24.0,-99.9,-100.00,NW,305,0.0,-999.0,-999,-99.99,,,-99.99,,2013-02-16 04:11:00,